Weather History for KWLD - May, 2013

Change the Weather History Date:

Saturday, May 25, 2013

  Actual Average Record
Temperature  
Mean Temperature 72 °F -  
Max Temperature 82 °F 79 °F 95 °F (2006)
Min Temperature 64 °F 56 °F 44 °F (2001)
Cooling Degree Days 8    
Growing Degree Days 22 (Base 50)    
Moisture  
Dew Point 66 °F    
Average Humidity 81    
Maximum Humidity 100    
Minimum Humidity 62    
Precipitation  
Precipitation 0.00 in - - ()
Sea Level Pressure  
Sea Level Pressure 30.08 in    
Wind  
Wind Speed 12 mph (SSE)    
Max Wind Speed 24 mph    
Max Gust Speed 30 mph    
Visibility 10 miles    
Events      
Averages and records for this station are not official NWS values.
T = Trace of Precipitation, MM = Missing Value Source: NWS Daily Summary

Daily Weather History Graph

Daily Weather History Graph

Search for Another Location

Airport or City:

Trip Planner

Search our weather history database for the weather conditions in past years. The results will help you decide how hot, cold, wet, or windy it might be!

Date:

Astronomy

May. 25, 2013 Rise Set
Actual Time 6:12 AM CDT 8:38 PM CDT
Civil Twilight 5:42 AM CDT 9:07 PM CDT
Nautical Twilight 5:05 AM CDT 9:44 PM CDT
Astronomical Twilight 4:25 AM CDT 10:25 PM CDT
Moon 9:27 PM CDT (5/25) 6:40 AM CDT (5/25)
Length of Visible Light 15h 25m
Length of Day
14h 25m
Full, 100% of the Moon is Illuminated
May 25
Full
May 31
Last Quarter
Jun 8
New
Jun 16
First Quarter
Jun 23
Full

Hourly Weather History & Observations

Time (CDT) Temp. Heat Index Dew Point Humidity Pressure Visibility Wind Dir Wind Speed Gust Speed Precip Events Conditions
12:54 AM 66.9 °F - 64.0 °F 90% 30.11 in 10.0 mi SE 10.4 mph - N/A   Clear
1:54 AM 66.9 °F - 64.0 °F 90% 30.11 in 10.0 mi SSE 11.5 mph 18.4 mph N/A   Overcast
2:06 AM 66.2 °F - 64.4 °F 94% 30.13 in 10.0 mi SSE 11.5 mph - N/A   Overcast
2:30 AM 66.2 °F - 64.4 °F 94% 30.13 in 10.0 mi SSE 10.4 mph - N/A   Mostly Cloudy
2:54 AM 66.9 °F - 64.0 °F 90% 30.09 in 10.0 mi South 9.2 mph - N/A   Partly Cloudy
3:54 AM 66.9 °F - 64.9 °F 93% 30.09 in 10.0 mi South 13.8 mph - N/A   Clear
4:54 AM 66.9 °F - 66.0 °F 97% 30.11 in 10.0 mi South 8.1 mph - N/A   Scattered Clouds
5:54 AM 66.0 °F - 64.9 °F 96% 30.12 in 10.0 mi ESE 5.8 mph - N/A   Clear
6:54 AM 64.9 °F - 64.9 °F 100% 30.12 in 7.0 mi SE 9.2 mph - N/A   Clear
7:41 AM 66.2 °F - 64.4 °F 94% 30.15 in 8.0 mi SSE 13.8 mph - N/A   Partly Cloudy
7:54 AM 66.9 °F - 64.9 °F 93% 30.13 in 8.0 mi SSE 16.1 mph - N/A   Mostly Cloudy
8:39 AM 69.8 °F - 66.2 °F 88% 30.14 in 10.0 mi SSE 12.7 mph - N/A   Scattered Clouds
8:54 AM 70.0 °F - 66.0 °F 87% 30.12 in 10.0 mi SSE 13.8 mph - N/A   Scattered Clouds
9:54 AM 73.0 °F - 64.9 °F 76% 30.11 in 10.0 mi South 15.0 mph 21.9 mph N/A   Clear
10:54 AM 75.9 °F - 66.0 °F 71% 30.09 in 10.0 mi South 13.8 mph 24.2 mph N/A   Clear
11:54 AM 77.0 °F - 64.9 °F 66% 30.11 in 10.0 mi South 16.1 mph 26.5 mph N/A   Clear
12:54 PM 78.1 °F - 66.0 °F 66% 30.11 in 10.0 mi South 17.3 mph 27.6 mph N/A   Scattered Clouds
1:54 PM 79.0 °F - 66.0 °F 64% 30.09 in 10.0 mi South 17.3 mph - N/A   Scattered Clouds
2:54 PM 81.0 °F 83.8 °F 68.0 °F 65% 30.06 in 10.0 mi South 13.8 mph 19.6 mph N/A   Mostly Cloudy
3:54 PM 81.0 °F 83.3 °F 66.9 °F 62% 30.04 in 10.0 mi South 15.0 mph 21.9 mph N/A   Mostly Cloudy
4:54 PM 80.1 °F 82.7 °F 68.0 °F 67% 30.03 in 10.0 mi SSE 24.2 mph 28.8 mph N/A   Mostly Cloudy
5:54 PM 80.1 °F 82.7 °F 68.0 °F 67% 30.00 in 10.0 mi South 18.4 mph 26.5 mph N/A   Clear
6:54 PM 78.1 °F - 66.9 °F 68% 29.98 in 10.0 mi SSE 18.4 mph 29.9 mph N/A   Partly Cloudy
7:54 PM 75.9 °F - 66.9 °F 74% 29.96 in 10.0 mi SSE 11.5 mph - N/A   Clear
8:54 PM 73.9 °F - 66.0 °F 76% 29.97 in 10.0 mi South 12.7 mph - N/A   Clear
9:54 PM 72.0 °F - 66.0 °F 81% 30.00 in 10.0 mi South 9.2 mph - N/A   Clear
10:54 PM 71.1 °F - 66.0 °F 84% 30.02 in 10.0 mi South 11.5 mph - N/A   Clear
11:54 PM 70.0 °F - 64.0 °F 81% 30.01 in 10.0 mi SSE 9.2 mph - N/A   Clear